TimePST,TemperatureF,Dew PointF,Humidity,Sea Level PressureIn,VisibilityMPH,Wind Direction,Wind SpeedMPH,Gust SpeedMPH,PrecipitationIn,Events,Conditions,WindDirDegrees,DateUTC
12:22 AM,30.2,30.2,100,30.28,0.2,Calm,Calm,-,N/A,Fog,Light Freezing Fog,0,2013-01-21 08:22:00
12:34 AM,30.2,30.2,100,30.27,0.2,North,3.5,-,N/A,Fog,Light Freezing Fog,10,2013-01-21 08:34:00
12:49 AM,30.2,28.4,93,30.27,0.2,Calm,Calm,-,N/A,Fog,Light Freezing Fog,0,2013-01-21 08:49:00
12:53 AM,30.0,28.9,96,30.30,0.2,North,3.5,-,N/A,Fog,Light Freezing Fog,360,2013-01-21 08:53:00
1:18 AM,28.4,28.4,100,30.27,0.2,NNW,3.5,-,N/A,Fog,Light Freezing Fog,340,2013-01-21 09:18:00
1:40 AM,28.4,28.4,100,30.28,0.2,Calm,Calm,-,N/A,Fog,Light Freezing Fog,0,2013-01-21 09:40:00
1:53 AM,28.9,28.0,96,30.31,0.2,Calm,Calm,-,N/A,Fog,Light Freezing Fog,0,2013-01-21 09:53:00
2:27 AM,28.4,28.4,100,30.28,0.2,Calm,Calm,-,N/A,Fog,Light Freezing Fog,0,2013-01-21 10:27:00
2:36 AM,28.4,28.4,100,30.27,0.2,Calm,Calm,-,N/A,Fog,Light Freezing Fog,0,2013-01-21 10:36:00
2:51 AM,28.4,28.4,100,30.27,0.5,Calm,Calm,-,N/A,Fog,Light Freezing Fog,0,2013-01-21 10:51:00
2:53 AM,28.9,28.0,96,30.30,0.5,Calm,Calm,-,N/A,Fog,Light Freezing Fog,0,2013-01-21 10:53:00
3:18 AM,28.4,26.6,93,30.26,0.2,Calm,Calm,-,N/A,Fog,Light Freezing Fog,0,2013-01-21 11:18:00
3:25 AM,28.4,26.6,93,30.26,0.2,Calm,Calm,-,N/A,Fog,Light Freezing Fog,0,2013-01-21 11:25:00
3:38 AM,28.4,26.6,93,30.26,0.5,Calm,Calm,-,N/A,Fog,Light Freezing Fog,0,2013-01-21 11:38:00
3:48 AM,28.4,26.6,93,30.26,0.8,Calm,Calm,-,N/A,,Mist,0,2013-01-21 11:48:00
3:53 AM,28.0,27.0,96,30.29,0.8,Calm,Calm,-,N/A,,Mist,0,2013-01-21 11:53:00
4:00 AM,26.6,26.6,100,30.26,0.5,Calm,Calm,-,N/A,Fog,Light Freezing Fog,0,2013-01-21 12:00:00
4:13 AM,26.6,26.6,100,30.25,0.8,Calm,Calm,-,N/A,,Overcast,0,2013-01-21 12:13:00
4:22 AM,26.6,26.6,100,30.25,0.8,Calm,Calm,-,N/A,,Mist,0,2013-01-21 12:22:00
4:25 AM,26.6,24.8,93,30.25,0.5,Calm,Calm,-,N/A,Fog,Light Freezing Fog,0,2013-01-21 12:25:00
4:32 AM,26.6,24.8,93,30.25,1.0,Calm,Calm,-,N/A,,Overcast,0,2013-01-21 12:32:00
4:41 AM,26.6,24.8,93,30.25,0.8,Calm,Calm,-,N/A,,Mist,0,2013-01-21 12:41:00
4:45 AM,26.6,24.8,93,30.25,0.5,Calm,Calm,-,N/A,Fog,Light Freezing Fog,0,2013-01-21 12:45:00
4:53 AM,26.1,25.0,96,30.27,0.5,Calm,Calm,-,N/A,Fog,Light Freezing Fog,0,2013-01-21 12:53:00
5:25 AM,26.6,24.8,93,30.23,1.0,Calm,Calm,-,N/A,,Mist,0,2013-01-21 13:25:00
5:30 AM,26.6,24.8,93,30.23,3.0,Calm,Calm,-,N/A,,Mostly Cloudy,0,2013-01-21 13:30:00
5:43 AM,26.6,24.8,93,30.23,1.8,Calm,Calm,-,N/A,,Mostly Cloudy,0,2013-01-21 13:43:00
5:53 AM,26.1,25.0,96,30.27,0.8,Calm,Calm,-,N/A,,Mist,0,2013-01-21 13:53:00
6:00 AM,26.6,24.8,93,30.23,0.5,Calm,Calm,-,N/A,Fog,Light Freezing Fog,0,2013-01-21 14:00:00
6:12 AM,26.6,24.8,93,30.22,0.2,Calm,Calm,-,N/A,Fog,Light Freezing Fog,0,2013-01-21 14:12:00
6:20 AM,26.6,24.8,93,30.22,0.2,Calm,Calm,-,N/A,Fog,Light Freezing Fog,0,2013-01-21 14:20:00
6:39 AM,26.6,24.8,93,30.22,0.2,Calm,Calm,-,N/A,Fog,Light Freezing Fog,0,2013-01-21 14:39:00
6:53 AM,26.1,24.1,92,30.25,0.2,Calm,Calm,-,N/A,Fog,Light Freezing Fog,0,2013-01-21 14:53:00
7:23 AM,24.8,24.8,100,30.21,0.2,Calm,Calm,-,N/A,Fog,Light Freezing Fog,0,2013-01-21 15:23:00
7:33 AM,24.8,23.0,93,30.21,0.8,Calm,Calm,-,N/A,,Partly Cloudy,0,2013-01-21 15:33:00
7:43 AM,24.8,23.0,93,30.21,1.8,Calm,Calm,-,N/A,,Partly Cloudy,0,2013-01-21 15:43:00
7:47 AM,24.8,23.0,93,30.21,4.0,Calm,Calm,-,N/A,,Partly Cloudy,0,2013-01-21 15:47:00
7:53 AM,25.0,24.1,96,30.25,4.0,Calm,Calm,-,N/A,,Partly Cloudy,0,2013-01-21 15:53:00
7:55 AM,24.8,23.0,93,30.22,2.5,Calm,Calm,-,N/A,,Partly Cloudy,0,2013-01-21 15:55:00
8:03 AM,24.8,24.8,100,30.21,10.0,Calm,Calm,-,N/A,,Clear,0,2013-01-21 16:03:00
8:53 AM,27.0,27.0,100,30.25,10.0,Calm,Calm,-,N/A,,Clear,0,2013-01-21 16:53:00
9:53 AM,30.9,30.0,96,30.26,10.0,North,4.6,-,N/A,,Clear,360,2013-01-21 17:53:00
10:53 AM,32.0,30.9,96,30.27,10.0,North,4.6,-,N/A,,Clear,10,2013-01-21 18:53:00
11:53 AM,36.0,33.1,89,30.26,10.0,Calm,Calm,-,N/A,,Clear,0,2013-01-21 19:53:00
12:53 PM,42.1,32.0,67,30.23,10.0,North,4.6,-,N/A,,Clear,360,2013-01-21 20:53:00
1:53 PM,43.0,34.0,71,30.20,10.0,NNE,4.6,-,N/A,,Clear,20,2013-01-21 21:53:00
2:53 PM,41.0,33.1,73,30.19,10.0,Calm,Calm,-,N/A,,Clear,0,2013-01-21 22:53:00
3:53 PM,37.9,33.1,83,30.18,10.0,South,3.5,-,N/A,,Clear,190,2013-01-21 23:53:00
4:53 PM,35.1,33.1,92,30.18,10.0,Calm,Calm,-,N/A,,Clear,0,2013-01-22 00:53:00
5:04 PM,33.8,33.8,100,30.15,9.0,Calm,Calm,-,N/A,,Clear,0,2013-01-22 01:04:00
5:25 PM,33.8,32.0,93,30.15,3.0,Calm,Calm,-,N/A,,Scattered Clouds,0,2013-01-22 01:25:00
5:40 PM,32.0,32.0,100,30.15,1.0,Calm,Calm,-,N/A,,Scattered Clouds,0,2013-01-22 01:40:00
5:53 PM,30.9,30.0,96,30.18,1.0,Calm,Calm,-,N/A,,Mist,0,2013-01-22 01:53:00
6:13 PM,32.0,30.2,93,30.14,1.0,Calm,Calm,-,N/A,,Mist,0,2013-01-22 02:13:00
6:22 PM,30.2,30.2,100,30.14,0.5,Calm,Calm,-,N/A,Fog,Light Freezing Fog,0,2013-01-22 02:22:00
6:53 PM,32.0,32.0,100,30.17,0.2,Calm,Calm,-,N/A,Fog,Fog,0,2013-01-22 02:53:00
7:53 PM,33.1,32.0,96,30.17,0.2,Calm,Calm,-,N/A,Fog,Fog,0,2013-01-22 03:53:00
8:53 PM,33.1,33.1,100,30.19,0.2,Calm,Calm,-,N/A,Fog,Fog,0,2013-01-22 04:53:00
9:53 PM,33.1,32.0,96,30.18,0.2,Calm,Calm,-,N/A,Fog,Fog,0,2013-01-22 05:53:00
10:53 PM,33.1,33.1,100,30.18,0.2,Calm,Calm,-,N/A,Fog,Fog,0,2013-01-22 06:53:00
11:35 PM,33.8,33.8,100,30.15,0.2,Calm,Calm,-,N/A,Fog,Fog,0,2013-01-22 07:35:00
11:53 PM,33.1,33.1,100,30.19,0.2,Calm,Calm,-,N/A,Fog,Fog,0,2013-01-22 07:53:00